Location: Unspecified
(0.0000°N, 0.0000°E)
Time: 20:23:10
(UTC+00:00)

Vanguard 2 - Visible Passes

Search period start: 16 November 2018 00:00
Search period end: 26 November 2018 00:00
Orbit: 553 x 2939 km, 32.9° (Epoch: 15 November)

Date Brightness Start Highest point End Pass type
(mag) Time Alt. Az. Time Alt. Az. Time Alt. Az.
16 Nov 11.0 01:50:44 34° NE 01:50:44 34° NE 01:59:02 10° NE visible
16 Nov 10.7 03:52:13 31° NW 03:55:18 33° NNW 04:10:00 10° NNE visible
16 Nov 11.0 21:31:02 10° S 21:31:10 10° S 21:31:10 10° S visible
17 Nov 11.0 02:08:18 34° NNE 02:08:18 34° NNE 02:17:03 10° NE visible
17 Nov 10.9 04:09:46 24° NW 04:14:30 26° NNW 04:27:46 10° NNE visible
17 Nov 11.0 21:47:46 10° SSW 21:47:47 10° SSW 21:47:47 10° SSW visible
18 Nov 11.0 02:25:43 33° NNE 02:25:43 33° NNE 02:34:58 10° NE visible
18 Nov 11.1 04:27:11 17° NW 04:33:58 21° NNW 04:45:39 10° NNE visible
19 Nov 11.0 02:43:02 30° N 02:43:02 30° N 02:52:48 10° NNE visible
19 Nov 11.3 04:44:29 12° NW 04:53:43 18° NNW 05:03:50 10° NNE visible
20 Nov 11.9 00:58:49 10° NE 00:58:49 10° NE 00:58:52 10° NE visible
20 Nov 11.1 03:00:15 27° N 03:00:15 27° N 03:10:38 10° NNE visible
20 Nov 11.4 05:04:20 10° NW 05:13:41 16° N 05:22:30 10° NNE visible
20 Nov 10.5 20:35:19 10° S 20:36:27 12° SSE 20:36:27 12° SSE visible
21 Nov 11.8 01:15:57 12° NE 01:15:57 12° NE 01:16:52 10° NE visible
21 Nov 11.1 03:17:22 23° NNW 03:17:22 23° NNW 03:28:35 10° NNE visible
21 Nov 11.5 05:24:58 10° NNW 05:33:46 15° N 05:41:54 10° NNE visible
21 Nov 10.4 20:51:48 10° S 20:53:12 15° S 20:53:12 15° S visible
22 Nov 11.7 01:33:00 14° NNE 01:33:00 14° NNE 01:34:45 10° NE visible
22 Nov 11.2 03:34:26 20° NNW 03:35:23 20° NNW 03:46:46 10° NNE visible
22 Nov 10.5 21:08:52 10° SSW 21:10:01 15° SSW 21:10:01 15° SSW visible
23 Nov 11.6 01:50:01 15° NNE 01:50:01 15° NNE 01:52:37 10° NNE visible
23 Nov 11.3 03:51:26 16° NNW 03:55:19 17° N 04:05:24 10° NNE visible
23 Nov 10.7 21:26:17 10° SW 21:26:50 13° SSW 21:26:50 13° SSW visible
24 Nov 11.6 02:06:58 16° NNE 02:06:58 16° NNE 02:10:30 10° NNE visible
24 Nov 11.4 04:08:23 12° NNW 04:15:25 16° N 04:24:44 10° NNE visible
24 Nov 10.1 19:39:47 10° SSE 19:42:19 13° SE 19:42:19 13° SE visible
25 Nov 11.5 02:23:54 16° NNE 02:23:54 16° NNE 02:28:35 10° NNE visible
25 Nov 11.5 04:26:01 10° NNW 04:35:33 16° N 04:44:52 10° NE visible
25 Nov 9.7 19:55:59 10° S 19:59:13 21° SSE 19:59:13 21° SSE visible
